OBJECT F, 67253

Orbit data source: Space-Track

You're viewing an Uncataloged Satellite

Recently launched and/or uncataloged satellites may have evolving metadata. Metadata may include but not limited to: Owner, Maufacturer, Bus, Motor, and Mission.

OBJECT F, 67253 is a satellite in SSO that was launched on Sun, 28 Dec 2025 UTC via a SOYUZ-2-1B launch vehicle from the Vostochny Cosmodrome (VOSTO). Unknown objects in Earth's orbit typically refer to objects detected orbiting the Earth but have not yet been identified or cataloged. These objects could be anything from previously untracked satellites, spent rocket stages, debris from satellite collisions, or even natural meteoroids temporarily captured by Earth's gravity.

Loading next visibility...
Identifier
67253, 2025-313F
Orbit
SSO
Country
Flag of TBDTBD
Related business
Manufacturer
SNIU/PROGT
Mission
Operational Amateur Imaging
Bus & Motor
AIST, Unknown motor
Mass
670 kg wet, ~630 kg dry
Launch date (UTC)
2025-12-28 (6 months ago)
Launch vehicle
SOYUZ-2-1B
Launch site
Vostochny Cosmodrome (VOSTO)
Object type
Unknown
Shape & HBR
Box + 2 Pan, 3.5 m
Radar Cross Section
4.561 m², Large (>1 m²)

Expand to show TLE details & history
Last TLE update: 1 day ago

TLE from 1 day ago
0 OBJECT F
1 67253U 25313F   26170.74514484  .00029100  00000-0  34511-3 0  9999
2 67253  97.0840 248.3521 0008480 203.9933 156.0931 15.61130864 27028
Epoch: 2026-06-19T17:53Z
TLE epoch observation values (Epoch: 2026-06-19T17:53:00.514Z)
Latitude
-0.00003°
Longitude
72.13025°
Altitude
392.789 km
Speed
7.672 km/s
True Right ascension
16h 33m 24s
True Declination
0° 00' 00"
Sunlit
Object was in full shadow at epoch
Visualization orbit readout
Latitude
Unknown
Longitude
Unknown
Altitude
Unknown
Speed
Unknown
Apparent Right ascension
Unknown
Apparent Declination
Unknown
Sunlit
N/A
Visualization observer readout
Local Sidereal Time
07:12:42
Azimuth
Unknown
Elevation
Unknown
Doppler factor
Unknown
Orbital elements
Apogee altitude
387.019 km
Perigee altitude
375.555 km
Semi-major axis
6,759.424 km
Eccentricity
0.00085
Inclination
97.084°
RAAN
248.3521°
Arg. of periapsis
203.9933°
True anomaly
156.13244°
Mean anomaly
156.0931°
Eccentric anomaly
156.11277°
Mean motion
3.90552 °/min
Orbital period
92.18 mins
BSTAR
0.00034511
Loading maneuver chart data...
Computing Atmospheric mass density...
Loading historical data...
Loading historical data...
Loading historical data...
Loading historical data...
Loading historical data...
Loading historical data...
Loading historical data...

Documentation

Showing up to 5 results
|